CW1839 Weather Reports


Display with metric or nautical units.
time (UTC)temp
F
wind
direction
speed
MPH
gust
MPH
rain 1hr
in
rain 24hr
in
rain mn
in
humidity
%
barometer
mb
20181018110019 70 58 7.0 0.0 0.00 0.00 0.00 78 1009.4
20181018104508 70 55 8.0 0.0 0.00 0.00 0.00 78 1009.4
20181018103032 70 44 9.0 0.0 0.00 0.00 0.00 76 1009.3
20181018101510 70 79 9.0 0.0 0.00 0.00 0.00 77 1009.6
20181018100022 69 89 8.0 0.0 0.00 0.00 0.00 77 1009.7
20181018094536 69 59 6.0 0.0 0.00 0.00 0.00 78 1009.9
20181018091525 69 68 9.0 0.0 0.00 0.00 0.00 77 1009.9
20181018090033 69 66 9.0 0.0 0.00 0.00 0.00 78 1009.7
20181018084511 69 32 8.0 0.0 0.00 0.00 0.00 78 1009.7
20181018083024 69 62 8.0 0.0 0.00 0.00 0.00 77 1009.8
20181018081543 68 62 6.0 0.0 0.00 0.00 0.00 78 1010.0
20181018080010 68 89 5.0 0.0 0.00 0.00 0.00 79 1010.2
20181018074535 68 49 7.0 0.0 0.00 0.00 0.00 79 1010.1
20181018073103 68 69 5.0 0.0 0.00 0.00 0.00 79 1010.0
20181018071532 67 90 6.0 0.0 0.00 0.00 0.00 79 1010.1
20181018070028 67 58 6.0 0.0 0.00 0.00 0.00 78 1010.2
20181018064508 67 47 6.0 0.0 0.00 0.00 0.00 78 1010.1
20181018063034 67 83 4.0 0.0 0.00 0.00 0.00 81 1010.1
20181018061510 67 27 5.0 0.0 0.00 0.00 0.00 81 1010.1
20181018060006 66 59 4.0 0.0 0.00 0.00 0.00 81 1009.9
20181018054605 66 58 4.0 0.0 0.00 0.00 0.00 82 1010.0
20181018053003 66 75 5.0 0.0 0.00 0.00 0.00 82 1009.7
20181018051504 66 65 5.0 0.0 0.00 0.00 0.00 83 1009.7
20181018050022 67 64 6.0 0.0 0.00 0.00 0.00 84 1009.7
20181018044524 66 61 6.0 0.0 0.00 0.00 0.00 83 1009.6
20181018043030 66 49 6.0 0.0 0.00 0.00 0.00 84 1009.2
20181018041518 66 88 5.0 0.0 0.00 0.00 0.00 84 1009.2
20181018040017 67 25 7.0 0.0 0.00 0.00 0.00 84 1008.8
20181018034529 67 51 7.0 0.0 0.00 0.00 0.00 83 1008.9
20181018033005 66 54 6.0 0.0 0.00 0.00 0.00 83 1009.0
20181018030022 66 78 6.0 0.0 0.00 0.00 0.00 85 1009.1
20181018024535 66 55 5.0 0.0 0.00 0.00 0.00 85 1009.2
20181018023051 66 54 4.0 0.0 0.00 0.00 0.00 85 1009.2
20181018021500 66 31 4.0 0.0 0.00 0.00 0.00 85 1009.0
20181018020028 66 58 5.0 0.0 0.00 0.00 0.00 85 1009.3
20181018014538 66 56 5.0 0.0 0.00 0.00 0.00 86 1009.5
20181018013009 66 64 4.0 0.0 0.00 0.00 0.00 86 1009.8
20181018011509 66 27 3.0 0.0 0.00 0.00 0.00 86 1010.0
20181018004538 66 62 3.0 0.0 0.00 0.00 0.00 87 1010.3
20181018003034 66 55 4.0 0.0 0.00 0.00 0.00 87 1010.5
20181018001552 66 68 3.0 0.0 0.00 0.00 0.00 88 1010.6
20181018000028 66 30 2.0 0.0 0.00 0.00 0.00 88 1010.7
20181017234504 66 41 2.0 0.0 0.00 0.00 0.00 88 1010.7
20181017233028 66 58 2.0 0.0 0.00 0.00 0.00 87 1010.8
20181017231540 66 42 2.0 0.0 0.00 0.00 0.00 87 1010.9
20181017230020 66 47 3.0 0.0 0.00 0.00 0.00 86 1010.9
20181017224534 66 69 3.0 0.0 0.00 0.00 0.00 86 1011.0
20181017223012 66 47 2.0 0.0 0.00 0.00 0.00 87 1011.4
20181017221508 66 59 3.0 0.0 0.00 0.00 0.00 86 1011.4
20181017220009 66 40 3.0 0.0 0.00 0.00 0.00 86 1011.5
20181017214516 66 58 3.0 0.0 0.00 0.00 0.00 86 1011.5
20181017213020 66 54 2.0 0.0 0.00 0.00 0.00 87 1011.6
20181017211520 66 31 2.0 0.0 0.00 0.00 0.00 87 1011.9
20181017210036 66 96 2.0 0.0 0.00 0.00 0.00 87 1012.1
20181017204508 67 73 3.0 0.0 0.00 0.00 0.00 87 1012.1
20181017203010 67 71 2.0 0.0 0.00 0.00 0.00 87 1012.1
20181017201513 67 89 2.0 0.0 0.00 0.00 0.00 87 1012.1
20181017200026 67 47 2.0 0.0 0.00 0.00 0.00 86 1012.1
20181017193018 67 54 3.0 0.0 0.00 0.00 0.00 86 1012.0
20181017191539 67 55 2.0 0.0 0.00 0.00 0.00 85 1012.0
20181017184527 67 76 2.0 0.0 0.00 0.00 0.00 85 1011.8
20181017183019 67 82 2.0 0.0 0.00 0.00 0.00 85 1011.8
20181017181513 67 52 1.0 0.0 0.00 0.00 0.00 85 1012.0
20181017180029 67 88 1.0 0.0 0.00 0.00 0.00 85 1012.0
20181017174506 67 69 1.0 0.0 0.00 0.00 0.00 85 1012.0
20181017173030 67 41 1.0 0.0 0.00 0.00 0.00 85 1011.9
20181017171525 67 52 1.0 0.0 0.00 0.00 0.00 84 1011.8
20181017164508 67 75 2.0 0.0 0.00 0.00 0.00 84 1011.6
20181017163020 68 71 1.0 0.0 0.00 0.00 0.00 84 1011.6
20181017161522 68 72 1.0 0.0 0.00 0.00 0.00 83 1011.6
20181017160017 68 97 2.0 0.0 0.00 0.00 0.00 83 1011.7
20181017154516 69 80 2.0 0.0 0.00 0.00 0.00 82 1011.7
20181017153024 69 82 2.0 0.0 0.00 0.00 0.00 82 1011.5
20181017151502 69 52 3.0 0.0 0.00 0.00 0.00 82 1011.4
20181017150009 69 62 3.0 0.0 0.00 0.00 0.00 81 1011.4
20181017144531 70 65 2.0 0.0 0.00 0.00 0.00 80 1011.5
20181017143032 70 76 3.0 0.0 0.00 0.00 0.00 78 1011.5
20181017141508 71 86 3.0 0.0 0.00 0.00 0.00 78 1011.7
20181017140030 70 85 2.0 0.0 0.00 0.00 0.00 80 1011.8
20181017133011 70 64 3.0 0.0 0.00 0.00 0.00 80 1012.0
20181017131515 71 59 4.0 0.0 0.00 0.00 0.00 78 1012.0
20181017130029 72 90 2.0 0.0 0.00 0.00 0.00 76 1011.9
20181017124502 72 93 1.0 0.0 0.00 0.00 0.00 77 1012.0
20181017123023 72 73 2.0 0.0 0.00 0.00 0.00 76 1012.1
20181017121529 73 61 2.0 0.0 0.00 0.00 0.00 76 1012.3
20181017120038 72 86 2.0 0.0 0.00 0.00 0.00 75 1012.5
20181017114528 73 73 2.0 0.0 0.00 0.00 0.00 75 1012.6
20181017113012 73 103 3.0 0.0 0.00 0.00 0.00 74 1012.7
20181017111529 73 83 2.0 0.0 0.00 0.00 0.00 75 1012.9